AirNav   Air Wisconsin pilot careers
 
 369 users online  

T32 Sudden Stop Airport
Collinsville, Texas, USA

GOING TO COLLINSVILLE?


FAA INFORMATION EFFECTIVE 21 JUNE 2018

Location

FAA Identifier: T32
Lat/Long: 33-34-17.3920N / 096-54-26.0090W
33-34.289867N / 096-54.433483W
33.5714978 / -96.9072247
(estimated)
Elevation: 720 ft. / 219 m (estimated)
Variation: 07E (1980)
From city: 1 mile NE of COLLINSVILLE, TX
Time zone: UTC -5 (UTC -6 during Standard Time)
Zip code: 76233

Airport Operations

Airport use: Open to the public
Activation date: 11/1986
Control tower: no
ARTCC: FORT WORTH CENTER
FSS: FORT WORTH FLIGHT SERVICE STATION
NOTAMs facility: FTW (NOTAM-D service available)
Attendance: CONTINUOUS
Wind indicator: yes
Segmented circle: no

Airport Communications

CTAF: 122.9
WX AWOS-3 at GYI (14 nm NE): 118.775 (903-786-7790)
WX AWOS-3 at GLE (15 nm W): 118.375 (940-612-3549)

Nearby radio navigation aids

VOR radial/distance  VOR name  Freq  Var
BYPr267/33.7BONHAM VORTAC114.6006E
URHr224/34.1TEXOMA VOR/DME114.3005E

 
NDB name  Hdg/Dist  Freq  Var  ID
DENISON212/19.434106EDNI -.. -. ..
MELISA316/24.542103EVLY ...- .-.. -.--

Airport Services

Parking: tiedowns

Runway Information

Runway 17/35

Dimensions: 1550 x 60 ft. / 472 x 18 m
Surface: turf, in good condition
RUNWAY 17  RUNWAY 35
Traffic pattern: leftleft
Obstructions: 30 ft. trees15 ft. road, 6 ft. from runway

Airport Ownership and Management from official FAA records

Ownership: Privately-owned
Owner: DON SWINDLE
1207 JOGGERS TRAIL
COLLINSVILLE, TX 76233
Phone 903-429-6343
OWNER LIVES ADJACENT.
Manager: DON SWINDLE
1207 JOGGERS TRAIL
COLLINSVILLE, TX 76233
Phone 903-429-6343

Airport Operational Statistics

Aircraft based on the field: 6
Single engine airplanes: 6
    
Aircraft operations: avg 50/month *
67% transient general aviation
33% local general aviation
* for 12-month period ending 30 June 2016

Additional Remarks

STUDENT TRNG PROHIBITED.
RY 17/35 THLDS UNMARKED.

Instrument Procedures

There are no published instrument procedures at T32.

Some nearby airports with instrument procedures:

KGYI - North Texas Regional Airport/Perrin Field (14 nm NE)
KGLE - Gainesville Municipal Airport (15 nm W)
KSWI - Sherman Municipal Airport (16 nm E)
KDTO - Denton Enterprise Airport (27 nm SW)
KTKI - McKinney National Airport (29 nm SE)
 
Loc | Ops | Rwys | IFR | FBO | Links
Com | Nav | Svcs | Stats | Notes


 
Area around T32 (Sudden Stop Airport)
 
Road maps at: MapQuest Bing Google
 
Aerial photo
WARNING: Photo may not be current or correct
Aerial photo of T32 (Sudden Stop Airport)
Do you have a better or more recent aerial photo of Sudden Stop Airport that you would like to share? If so, please send us your photo.

 
Sectional chart

 
Airport distance calculator
Flying to Sudden Stop Airport? Find the distance to fly.

From to T32

Sunrise and sunset
Times for 17-Jul-2018
 Local
(UTC-5)
 Zulu
(UTC)
Morning civil twilight06:0311:03
Sunrise06:3111:31
Sunset20:3701:37
Evening civil twilight21:0502:05

Current date and time
Zulu (UTC)  17-Jul-2018 09:35:27
Local (UTC-5)  17-Jul-2018 04:35:27
 
METAR
KGYI 
14nm NE 
170915Z AUTO 18007KT 7SM CLR 27/19 A2999 RMK AO2 T02700192
KGLE 
15nm W 
170915Z AUTO 19003KT 7SM CLR 25/18 A3000 RMK AO2 T02490179
KDTO 
27nm SW 
170853Z AUTO 17005KT 10SM CLR 27/17 A2998 RMK AO2 SLP139 T02670172 55001
KTKI 
28nm SE 
170853Z AUTO 17004KT 10SM CLR 26/21 A2998 RMK AO2 SLP145 T02560206 56001
TAF
KDFW 
41nm S 
170520Z 1706/1812 15008KT P6SM FEW250 FM171400 23010KT P6SM SKC
KAFW 
42nm SW 
170520Z 1706/1806 15008KT P6SM FEW250 FM171400 23010KT P6SM SKC
KDAL 
43nm S 
170520Z 1706/1806 15008KT P6SM FEW250 FM171400 23010KT P6SM SKC
KFTW 
50nm SW 
170520Z 1706/1806 16008KT P6SM FEW250 FM171400 23010KT P6SM SKC
NOTAMs
Click for the latest NOTAMs
NOTAMs are issued by the DoD/FAA and will open in a separate window not controlled by AirNav.

 

 
 

Would you like to see your business listed on this page?

 If your business provides an interesting product or service to pilots, flight crews, aircraft, or users of the Sudden Stop Airport, you should consider listing it here.  To start the listing process, click on the button below
 
Add a business
 

Other Pages about Sudden Stop Airport

Update a link
 
Copyright © AirNav, LLC. All rights reserved. Privacy Policy  Contact